Precipitable_Water
0.91 0.87 0.82 0.78 0.76 0.75 0.73 0.71 0.71 0.70 0.69 0.69 0.67 0.67 0.67 0.67 0.68 0.66 0.65 0.63 0.62 0.60 0.60 0.59 0.58 0.58 0.57 0.57 0.57 0.57 0.55 0.55 0.55 0.54 0.55 0.56 0.55 0.55 0.54 0.55 0.57 0.57
0.86 0.84 0.81 0.78 0.75 0.75 0.74 0.73 0.72 0.70 0.68 0.68 0.68 0.67 0.67 0.66 0.65 0.63 0.61 0.59 0.57 0.56 0.56 0.55 0.54 0.53 0.52 0.51 0.51 0.50 0.48 0.47 0.45 0.48 0.47 0.47 0.46 0.46 0.45 0.47 0.48 0.50
0.86 0.82 0.79 0.76 0.74 0.74 0.73 0.72 0.71 0.70 0.68 0.67 0.67 0.66 0.64 0.64 0.62 0.60 0.57 0.56 0.53 0.52 0.51 0.50 0.48 0.47 0.46 0.45 0.45 0.43 0.42 0.40 0.38 0.41 0.42 0.41 0.42 0.41 0.42 0.42 0.43 0.44
0.83 0.81 0.79 0.77 0.75 0.74 0.73 0.70 0.69 0.68 0.67 0.65 0.64 0.63 0.62 0.60 0.58 0.56 0.54 0.52 0.50 0.48 0.47 0.46 0.45 0.44 0.43 0.42 0.41 0.39 0.39 0.38 0.37 0.38 0.38 0.38 0.38 0.39 0.40 0.41 0.41 0.41
0.80 0.79 0.78 0.76 0.75 0.74 0.71 0.67 0.65 0.65 0.64 0.62 0.61 0.59 0.57 0.55 0.53 0.51 0.50 0.48 0.47 0.46 0.44 0.43 0.41 0.40 0.40 0.38 0.38 0.36 0.36 0.35 0.36 0.36 0.35 0.35 0.36 0.37 0.37 0.38 0.37 0.38
0.78 0.77 0.76 0.74 0.73 0.70 0.67 0.65 0.63 0.61 0.59 0.57 0.55 0.54 0.52 0.51 0.49 0.48 0.47 0.45 0.44 0.43 0.41 0.40 0.38 0.37 0.37 0.36 0.35 0.34 0.33 0.32 0.34 0.34 0.33 0.33 0.34 0.36 0.36 0.36 0.35 0.35
0.73 0.72 0.71 0.71 0.68 0.67 0.64 0.61 0.59 0.58 0.56 0.55 0.53 0.51 0.49 0.48 0.47 0.46 0.45 0.44 0.42 0.40 0.39 0.37 0.36 0.35 0.35 0.34 0.32 0.32 0.32 0.32 0.32 0.31 0.30 0.32 0.33 0.32 0.34 0.34 0.34 0.34
0.71 0.70 0.69 0.67 0.64 0.62 0.59 0.57 0.56 0.55 0.54 0.51 0.49 0.48 0.47 0.46 0.45 0.45 0.43 0.42 0.40 0.39 0.37 0.36 0.34 0.34 0.33 0.32 0.30 0.30 0.30 0.31 0.30 0.30 0.30 0.30 0.31 0.30 0.31 0.34 0.34 0.33
0.70 0.68 0.67 0.65 0.61 0.58 0.56 0.54 0.53 0.52 0.51 0.48 0.47 0.46 0.47 0.46 0.44 0.43 0.41 0.41 0.39 0.37 0.36 0.34 0.33 0.31 0.31 0.31 0.30 0.30 0.29 0.29 0.30 0.30 0.29 0.29 0.29 0.30 0.31 0.33 0.33 0.33
0.68 0.66 0.64 0.61 0.58 0.57 0.55 0.53 0.51 0.49 0.48 0.47 0.46 0.46 0.45 0.44 0.43 0.41 0.40 0.39 0.37 0.36 0.34 0.32 0.31 0.30 0.30 0.30 0.30 0.29 0.29 0.28 0.29 0.29 0.30 0.30 0.30 0.31 0.31 0.32 0.32 0.32
0.65 0.64 0.61 0.59 0.57 0.55 0.53 0.51 0.49 0.47 0.47 0.45 0.45 0.44 0.43 0.42 0.41 0.40 0.38 0.37 0.35 0.34 0.33 0.31 0.30 0.29 0.28 0.28 0.29 0.30 0.30 0.29 0.30 0.30 0.31 0.31 0.32 0.32 0.33 0.33 0.32 0.32
0.64 0.62 0.59 0.56 0.54 0.52 0.50 0.49 0.47 0.46 0.45 0.45 0.44 0.42 0.41 0.40 0.39 0.38 0.37 0.35 0.34 0.34 0.32 0.30 0.29 0.28 0.27 0.27 0.28 0.29 0.30 0.31 0.32 0.32 0.32 0.32 0.32 0.33 0.33 0.33 0.32 0.32
0.62 0.60 0.58 0.55 0.52 0.50 0.48 0.46 0.45 0.46 0.45 0.43 0.42 0.41 0.39 0.38 0.37 0.35 0.35 0.34 0.33 0.33 0.31 0.30 0.29 0.28 0.27 0.27 0.28 0.28 0.30 0.31 0.32 0.32 0.31 0.32 0.33 0.33 0.34 0.34 0.33 0.33
0.60 0.58 0.55 0.52 0.50 0.48 0.47 0.46 0.46 0.45 0.44 0.43 0.41 0.40 0.38 0.36 0.35 0.34 0.34 0.33 0.33 0.33 0.32 0.31 0.29 0.27 0.27 0.26 0.27 0.27 0.29 0.31 0.32 0.31 0.31 0.32 0.33 0.34 0.33 0.33 0.33 0.33
0.59 0.57 0.54 0.51 0.49 0.47 0.46 0.46 0.45 0.44 0.42 0.41 0.40 0.39 0.38 0.36 0.34 0.34 0.32 0.32 0.33 0.33 0.32 0.30 0.28 0.27 0.27 0.26 0.25 0.26 0.29 0.30 0.32 0.31 0.31 0.31 0.32 0.32 0.32 0.32 0.32 0.32
0.58 0.55 0.52 0.50 0.48 0.46 0.46 0.45 0.44 0.42 0.41 0.40 0.39 0.37 0.36 0.35 0.33 0.32 0.32 0.31 0.31 0.32 0.31 0.29 0.26 0.26 0.26 0.26 0.26 0.26 0.27 0.31 0.32 0.32 0.32 0.31 0.31 0.30 0.30 0.31 0.31 0.32
0.56 0.52 0.50 0.48 0.48 0.48 0.46 0.44 0.42 0.41 0.40 0.39 0.37 0.35 0.34 0.32 0.31 0.30 0.31 0.32 0.31 0.30 0.29 0.28 0.26 0.25 0.24 0.25 0.26 0.26 0.28 0.30 0.30 0.31 0.31 0.31 0.30 0.29 0.30 0.30 0.31 0.32
0.55 0.53 0.51 0.50 0.49 0.45 0.44 0.42 0.41 0.39 0.37 0.36 0.35 0.33 0.32 0.31 0.30 0.30 0.30 0.31 0.31 0.30 0.28 0.27 0.25 0.24 0.24 0.24 0.25 0.26 0.27 0.29 0.31 0.30 0.31 0.30 0.30 0.31 0.31 0.31 0.31 0.31
0.57 0.54 0.51 0.49 0.47 0.44 0.42 0.40 0.37 0.36 0.35 0.33 0.32 0.32 0.31 0.29 0.29 0.29 0.29 0.30 0.31 0.29 0.28 0.26 0.24 0.25 0.24 0.24 0.25 0.26 0.27 0.28 0.31 0.31 0.30 0.30 0.31 0.32 0.32 0.31 0.31 0.31
0.53 0.50 0.47 0.43 0.42 0.40 0.38 0.36 0.35 0.34 0.34 0.33 0.32 0.31 0.29 0.28 0.28 0.27 0.28 0.29 0.30 0.30 0.28 0.26 0.23 0.24 0.24 0.24 0.25 0.25 0.27 0.28 0.31 0.31 0.31 0.30 0.31 0.31 0.32 0.32 0.32 0.31
0.44 0.42 0.40 0.39 0.37 0.36 0.35 0.35 0.34 0.34 0.33 0.31 0.30 0.29 0.28 0.27 0.26 0.26 0.27 0.27 0.28 0.29 0.29 0.27 0.24 0.25 0.25 0.25 0.26 0.26 0.27 0.29 0.30 0.31 0.30 0.30 0.31 0.31 0.31 0.32 0.33 0.33
0.41 0.38 0.37 0.36 0.35 0.35 0.34 0.34 0.34 0.33 0.31 0.30 0.29 0.29 0.29 0.28 0.27 0.26 0.26 0.26 0.27 0.28 0.28 0.27 0.25 0.25 0.25 0.25 0.25 0.27 0.27 0.29 0.29 0.29 0.29 0.29 0.30 0.30 0.30 0.32 0.33 0.32
0.38 0.36 0.35 0.35 0.35 0.34 0.34 0.33 0.32 0.31 0.31 0.30 0.28 0.28 0.28 0.27 0.26 0.25 0.26 0.26 0.25 0.26 0.28 0.28 0.26 0.25 0.25 0.25 0.25 0.27 0.28 0.29 0.28 0.28 0.29 0.29 0.29 0.29 0.30 0.31 0.31 0.31
0.36 0.35 0.34 0.34 0.34 0.33 0.32 0.32 0.31 0.31 0.30 0.31 0.28 0.27 0.26 0.27 0.27 0.26 0.26 0.26 0.25 0.24 0.26 0.27 0.27 0.25 0.25 0.25 0.25 0.25 0.27 0.29 0.27 0.27 0.28 0.28 0.28 0.29 0.29 0.29 0.30 0.31
0.36 0.35 0.34 0.34 0.33 0.33 0.32 0.31 0.31 0.31 0.31 0.32 0.30 0.28 0.27 0.27 0.26 0.25 0.25 0.26 0.27 0.27 0.25 0.26 0.27 0.26 0.24 0.25 0.25 0.25 0.27 0.30 0.28 0.27 0.27 0.29 0.29 0.28 0.29 0.29 0.31 0.32
0.35 0.34 0.34 0.33 0.33 0.33 0.33 0.33 0.32 0.32 0.32 0.30 0.29 0.28 0.26 0.27 0.27 0.26 0.25 0.25 0.26 0.27 0.26 0.25 0.26 0.26 0.25 0.24 0.25 0.26 0.26 0.28 0.28 0.26 0.27 0.29 0.29 0.28 0.27 0.29 0.31 0.31
Wind_Speed
12 12 12 12 12 12 12 12 12 12 12 12 13 13 14 15 15 16 17 17 18 19 19 20 20 21 21 21 22 22 22 23 23 24 24 24 24 24 25 25 24 24
13 13 12 12 12 12 12 12 12 12 12 12 13 13 14 15 16 16 17 18 18 19 20 20 21 21 22 22 23 23 23 23 24 24 24 24 24 24 25 25 25 25
13 13 13 13 13 12 12 12 12 12 12 13 13 14 14 15 16 17 18 18 19 20 20 21 22 22 22 23 23 23 23 23 23 24 24 24 24 24 25 25 25 25
13 13 13 13 13 13 12 13 12 12 13 13 13 14 15 16 17 17 18 19 20 20 21 22 22 22 23 23 23 23 23 23 23 24 23 23 24 24 24 24 25 25
13 13 13 13 12 12 13 12 12 13 13 13 14 15 15 16 17 18 19 20 20 21 22 22 22 23 23 23 23 23 23 23 23 23 23 23 23 23 23 24 24 25
12 12 12 12 12 12 12 12 13 13 13 14 14 15 16 17 17 18 19 20 21 21 22 22 23 23 23 23 23 22 22 22 22 23 23 23 23 23 24 24 24 25
12 12 12 12 12 12 12 12 13 13 13 14 15 15 16 17 18 19 20 20 21 21 22 22 22 23 23 22 22 22 22 22 22 23 23 23 23 24 24 24 25 25
11 12 12 12 12 12 12 12 12 13 13 14 15 15 16 17 18 19 20 20 20 21 21 22 22 22 22 22 22 22 22 22 22 23 23 23 24 24 25 25 25 25
11 11 11 11 11 11 11 11 12 12 13 14 15 15 16 17 18 19 19 19 20 20 21 21 22 22 22 22 22 22 22 22 23 23 23 24 24 25 25 25 26 26
10 10 10 10 10 11 11 11 12 12 13 14 14 15 16 17 18 18 18 19 19 20 21 21 22 22 22 22 22 23 23 23 23 23 24 24 25 25 26 26 27 27
10 10 10 10 10 10 10 11 12 12 13 13 14 15 16 17 17 17 18 19 19 20 21 21 21 22 22 22 23 23 23 23 24 24 25 25 26 26 27 27 28 28
9 9 9 9 9 10 10 11 11 12 12 13 14 15 15 16 17 17 18 19 19 20 20 20 21 22 22 23 23 23 24 24 24 25 26 26 27 27 28 28 29 29
9 9 9 9 9 10 10 11 11 11 12 13 14 14 15 15 16 17 18 19 19 19 20 20 21 22 23 23 24 24 24 25 25 26 26 27 27 28 28 29 29 30
9 9 9 9 10 10 10 10 11 11 12 13 13 14 14 15 16 17 18 18 19 19 19 20 21 22 23 24 25 25 25 25 26 26 27 27 28 28 29 29 30 30
9 9 9 9 9 10 10 10 11 11 12 12 13 13 14 15 16 17 18 18 18 19 19 21 22 23 24 25 25 26 26 26 26 27 27 28 28 29 29 30 31 31
9 9 9 9 9 9 10 10 10 10 11 11 12 13 14 16 16 17 17 17 18 19 20 21 22 24 25 26 26 26 26 26 26 27 27 28 29 30 30 31 32 32
9 9 9 9 9 9 9 9 9 9 10 11 12 14 15 15 16 16 17 17 18 19 20 21 23 25 26 27 27 27 27 26 26 27 28 29 30 30 31 32 32 33
9 9 8 8 8 8 8 8 8 9 10 12 13 13 14 15 15 16 17 18 19 20 21 22 23 25 27 27 27 27 27 27 27 28 29 29 31 31 32 32 33 33
9 9 8 8 7 7 8 8 9 10 11 12 12 13 14 14 15 16 17 18 19 20 21 22 24 26 27 27 27 27 28 28 27 28 29 30 31 32 32 33 33 34
8 8 8 8 8 8 8 8 9 10 11 11 12 13 14 14 16 17 18 19 20 20 21 22 24 26 27 27 27 28 29 29 28 29 30 31 32 32 33 33 33 34
8 7 7 7 7 7 8 8 9 10 10 11 12 13 14 15 16 17 18 19 20 21 21 22 24 25 26 27 28 29 29 29 28 29 30 30 31 32 33 33 34 34
8 7 7 7 7 7 8 8 9 9 10 11 12 13 14 15 16 17 18 19 20 20 21 22 23 25 27 27 28 29 29 28 28 29 30 30 31 32 32 33 33 34
8 7 7 7 7 7 7 8 9 9 10 11 12 13 14 16 17 18 18 19 20 21 21 21 23 25 26 27 28 29 28 28 28 29 30 30 31 31 31 32 32 33
7 7 7 7 7 7 7 8 8 9 10 11 13 14 15 16 17 17 18 19 19 21 21 22 23 25 26 27 28 29 28 28 28 29 29 30 30 30 31 31 32 33
7 7 7 7 7 7 7 8 9 10 11 12 13 14 15 16 16 17 18 18 19 20 21 22 23 24 26 27 27 29 29 28 28 29 29 29 30 30 31 32 32 34
7 7 7 7 7 7 7 8 9 10 11 12 13 14 15 15 16 16 17 18 19 20 21 22 23 24 25 26 27 28 29 28 28 29 29 29 30 31 32 32 33 34
Wind_Direction
269 271 273 273 274 278 282 287 289 292 295 298 301 305 308 311 313 315 316 317 317 317 317 316 316 314 313 312 311 309 308 308 306 305 304 303 302 302 302 302 302 301
266 269 270 271 272 277 281 286 289 291 293 296 299 304 307 310 313 315 316 316 317 318 318 317 317 316 314 313 312 311 310 309 308 307 305 304 304 303 303 303 302 302
265 267 269 269 271 276 280 283 286 287 290 294 298 301 305 309 311 313 315 316 316 317 318 318 317 317 316 315 313 312 311 311 311 309 308 306 305 304 304 304 303 303
266 267 268 269 271 274 277 280 282 285 288 292 296 300 304 307 309 311 313 314 315 316 317 317 318 317 317 316 315 314 312 312 312 311 310 309 307 307 306 305 305 304
265 266 267 269 271 274 276 278 281 284 287 291 295 300 302 305 307 309 311 313 314 315 316 317 318 318 318 318 317 316 315 314 314 313 313 311 310 309 308 307 306 306
264 265 267 269 271 274 276 278 280 283 287 291 295 299 302 305 307 309 311 312 314 316 317 318 319 319 319 320 319 319 318 317 317 316 315 313 313 312 310 309 309 308
262 263 266 268 272 274 276 278 281 284 288 292 296 299 303 305 307 309 311 313 315 317 319 320 320 321 322 322 321 321 320 319 318 318 316 315 314 313 312 311 310 308
262 263 265 268 272 274 276 279 282 286 290 293 297 301 304 306 308 310 313 315 317 319 321 322 323 323 323 323 322 321 321 319 319 318 317 316 315 314 313 312 311 309
263 264 265 269 271 273 276 279 283 288 292 295 298 302 305 308 310 313 315 318 320 321 323 324 324 324 324 323 322 322 321 320 319 318 317 317 316 316 315 313 312 311
264 264 266 268 270 273 277 281 285 289 293 297 300 303 306 309 312 315 318 320 322 323 324 324 325 324 324 323 322 321 321 320 319 319 318 318 317 316 315 314 313 311
264 264 266 268 270 274 279 283 287 291 295 299 302 305 308 312 315 318 320 322 323 323 324 325 325 325 324 324 323 321 321 321 320 320 319 319 318 317 316 314 313 311
263 265 267 269 273 277 282 286 289 293 297 301 304 307 311 315 317 320 321 322 322 323 324 325 325 325 325 324 323 322 321 321 320 320 319 319 318 317 316 315 313 312
263 265 268 272 276 280 284 287 290 294 298 302 306 310 314 317 319 320 321 322 322 323 324 325 326 326 326 325 324 323 322 321 321 320 320 319 319 318 317 316 314 313
264 267 269 273 277 280 284 287 291 295 299 303 308 312 316 318 319 320 320 321 322 323 324 326 326 327 327 326 324 323 322 321 321 321 321 320 319 318 317 316 315 314
265 268 270 273 277 280 283 287 291 297 301 306 311 314 316 318 319 320 320 322 323 324 325 326 327 327 327 327 326 324 323 322 321 321 321 321 320 319 318 318 317 315
265 267 269 272 275 277 282 287 293 298 304 309 313 315 317 318 320 321 321 323 324 325 326 327 327 328 328 327 327 326 324 323 323 322 322 321 321 321 320 319 318 317
264 265 266 269 272 275 280 287 294 301 306 310 314 316 317 319 320 322 323 324 325 326 327 327 328 329 329 328 328 327 326 324 324 323 323 322 323 322 321 320 320 318
261 261 261 264 268 273 280 288 296 302 308 311 314 317 318 320 322 324 325 325 325 327 328 328 329 330 330 329 329 329 327 326 325 324 324 324 324 323 322 322 321 320
257 253 253 258 264 272 281 290 297 304 309 312 315 317 319 322 324 325 325 326 326 327 329 330 330 332 332 331 330 329 328 328 326 326 326 326 325 325 324 323 322 322
254 248 249 256 264 273 283 292 299 305 310 313 315 318 320 323 325 326 326 327 327 328 329 330 332 333 333 332 331 330 330 329 328 327 327 327 327 327 326 325 325 324
249 247 249 255 262 273 284 294 301 306 311 314 316 318 320 323 325 327 328 328 329 329 329 331 333 334 335 334 333 332 331 331 330 329 329 329 329 329 328 328 327 327
244 245 248 254 263 275 286 295 301 307 311 314 316 319 321 324 326 327 328 329 330 330 330 331 334 336 336 336 335 334 333 332 331 331 331 331 331 331 331 330 330 329
240 242 247 256 267 278 288 296 302 307 310 314 318 321 323 325 326 327 329 331 332 332 332 332 334 336 337 337 337 336 335 334 333 333 333 333 333 333 333 333 333 332
238 242 249 260 269 278 287 295 302 307 312 316 320 322 324 325 326 328 330 332 333 335 335 334 334 336 338 337 338 338 337 336 335 335 335 335 336 336 335 335 334 334
238 245 253 261 269 277 287 296 303 310 314 317 319 321 322 324 327 329 331 333 335 336 338 337 336 337 339 339 339 340 340 338 337 338 338 337 338 338 337 337 336 336
240 247 255 262 270 279 289 298 305 311 314 317 318 320 322 325 328 330 332 334 336 337 338 339 339 339 340 341 341 342 342 341 340 341 341 339 340 340 339 339 339 338